1505934000.29,23216,15.06,73372.5,-1.17,-1.91,-1.87,0,*54
1505934001.53,23217,15.06,73376.3,-1.15,-1.91,-1.91,0,*50
1505934002.79,23218,15.06,73374.3,-1.15,-1.91,-1.87,0,*58
1505934004.02,23219,15.06,73376.8,-1.17,-1.91,-1.91,0,*5C
1505934005.21,23220,15.06,73378.8,-1.17,-1.79,-1.79,0,*56
1505934006.47,23221,15.06,73378.8,-1.15,-1.83,-1.87,0,*51
1505934007.72,23222,15.06,73376.8,-1.15,-1.87,-1.87,0,*56
1505934008.97,23223,15.06,73376.0,-1.15,-1.87,-1.87,0,*57
1505934010.22,23224,15.06,73378.0,-1.15,-1.91,-1.87,0,*57
1505934011.43,23225,15.06,73378.3,-1.17,-1.79,-1.87,0,*52
1505934012.68,23226,15.06,73376.5,-1.17,-1.87,-1.91,0,*57
1505934013.92,23227,15.06,73376.0,-1.17,-1.87,-1.87,0,*51
1505934015.11,23228,15.06,73378.0,-1.17,-1.79,-1.79,0,*5E
1505934016.3,23229,15.06,73374.8,-1.17,-1.75,-1.79,0,*53
1505934017.54,23230,15.06,73380.8,-1.17,-1.91,-1.91,0,*57
1505934018.78,23231,15.06,73386.5,-1.17,-1.91,-1.87,0,*51
1505934020.02,23232,15.06,73382.0,-1.17,-1.87,-1.91,0,*52
1505934021.27,23233,15.06,73382.5,-1.15,-1.87,-1.87,0,*56
1505934022.52,23234,15.06,73384.0,-1.15,-1.83,-1.87,0,*55
1505934023.78,23235,15.06,73382.0,-1.15,-1.87,-1.87,0,*50
1505934025.03,23236,15.06,73382.0,-1.15,-1.87,-1.87,0,*53
1505934026.27,23237,15.06,73380.0,-1.17,-1.91,-1.91,0,*50
1505934027.52,23238,15.06,73382.3,-1.15,-1.91,-1.91,0,*5D
1505934028.76,23239,15.06,73382.5,-1.17,-1.91,-1.91,0,*5E
1505934030.0,23240,15.06,73380.8,-1.17,-1.95,-1.91,0,*54
1505934031.25,23241,15.06,73386.3,-1.15,-1.87,-1.99,0,*5C
1505934032.49,23242,15.06,73380.8,-1.17,-1.91,-1.91,0,*52
1505934033.74,23243,15.06,73386.5,-1.15,-1.87,-1.87,0,*51
1505934034.97,23244,15.06,73380.8,-1.15,-1.35,-1.17,0,*56
1505934036.22,23245,15.06,73382.5,-1.15,-1.83,-1.87,0,*53
1505934037.47,23246,15.06,73384.8,-1.15,-1.87,-1.87,0,*54
1505934038.71,23247,15.06,73384.3,-1.17,-1.91,-1.91,0,*57
1505934039.95,23248,15.06,73380.8,-1.17,-1.87,-1.91,0,*5F
1505934041.21,23249,15.06,73378.8,-1.15,-1.87,-1.87,0,*5B
1505934042.45,23250,15.06,73376.8,-1.17,-1.91,-1.91,0,*51
1505934043.68,23251,15.06,73380.0,-1.17,-1.91,-1.91,0,*50
1505934044.92,23252,15.06,73378.8,-1.17,-1.91,-1.91,0,*53
1505934046.16,23253,15.06,73376.3,-1.17,-1.91,-2.03,0,*5A
1505934047.4,23254,15.06,73376.5,-1.17,-1.95,-2.03,0,*59
1505934048.64,23255,15.06,73378.8,-1.17,-2.03,-1.95,0,*58
1505934049.83,23256,15.06,73374.5,-1.17,-1.79,-1.79,0,*57
1505934051.05,23257,15.06,73370.8,-1.17,-1.33,-1.39,0,*5C
1505934052.28,23258,15.06,73362.0,-1.17,-1.95,-1.95,0,*59
1505934053.54,23259,15.06,73370.3,-1.15,-1.99,-2.03,0,*5A
1505934054.78,23260,15.06,73382.0,-1.17,-2.03,-2.07,0,*56
1505934056.03,23261,15.06,73384.3,-1.17,-2.03,-2.07,0,*57
1505934057.26,23262,15.06,73382.5,-1.17,-1.95,-1.95,0,*50
1505934058.46,23263,15.06,73372.3,-1.15,-2.23,-2.27,0,*57
1505934059.64,23264,15.06,73380.3,-1.17,-2.19,-2.27,0,*5B
1505934060.83,23265,15.06,73380.0,-1.17,-2.19,-2.27,0,*5A
1505934062.07,23266,15.06,73380.8,-1.19,-2.07,-2.19,0,*55
1505934063.32,23267,15.06,73384.5,-1.21,-2.03,-2.07,0,*54
1505934064.59,23268,15.06,73384.3,-1.19,-2.07,-2.07,0,*54
1505934065.84,23269,15.06,73376.0,-1.19,-2.43,-2.47,0,*51
1505934067.09,23270,15.06,73374.3,-1.21,-2.47,-2.55,0,*55
1505934068.36,23271,15.06,73368.0,-1.19,-2.51,-2.51,0,*5C
1505934069.6,23272,15.06,73364.0,-1.21,-2.55,-2.55,0,*54
1505934070.83,23273,15.06,73360.0,-1.21,-2.35,-2.47,0,*50
1505934072.04,23274,15.06,73364.3,-1.23,-2.27,-2.27,0,*50
1505934073.25,23275,15.06,73364.5,-1.25,-2.39,-2.47,0,*5E
1505934074.47,23276,15.06,73360.5,-1.23,-2.27,-2.39,0,*5D
1505934075.69,23277,15.06,73364.3,-1.23,-2.27,-2.27,0,*53
1505934076.9,23278,15.06,73364.8,-1.23,-2.15,-2.27,0,*5D
1505934078.12,23279,15.06,73366.8,-1.23,-2.15,-2.27,0,*5C
1505934079.34,23280,15.06,73372.0,-1.25,-2.11,-2.15,0,*59
1505934080.58,23281,15.06,73372.3,-1.25,-1.99,-2.03,0,*5C
1505934081.8,23282,15.06,73370.5,-1.23,-2.15,-2.15,0,*59
1505934083.07,23283,15.06,73368.8,-1.23,-1.99,-1.95,0,*54
1505934084.35,23284,15.06,73370.8,-1.23,-1.87,-1.87,0,*5F
1505934085.62,23285,15.06,73368.0,-1.23,-1.87,-1.87,0,*5E
1505934086.89,23286,15.06,73374.8,-1.23,-1.47,-1.39,0,*54
1505934088.14,23287,15.06,73372.8,-1.21,-1.05,-1.09,0,*52
1505934089.35,23288,15.06,73374.0,-1.19,-1.51,-1.51,0,*5A
1505934090.55,23289,15.06,73366.3,-1.21,-1.71,-1.71,0,*50
1505934091.82,23290,15.06,73368.5,-1.19,-1.91,-1.91,0,*53
1505934093.08,23291,15.06,73368.8,-1.19,-1.91,-1.95,0,*56
1505934094.32,23292,15.06,73368.8,-1.19,-1.87,-1.79,0,*50
1505934095.53,23293,15.06,73374.3,-1.19,-1.51,-1.51,0,*50
1505934096.75,23294,15.06,73370.5,-1.19,-1.63,-1.63,0,*57
1505934097.97,23295,15.06,73364.0,-1.19,-1.79,-1.79,0,*56
1505934099.15,23296,15.06,73364.8,-1.17,-1.55,-1.55,0,*5B
1505934100.34,23297,15.06,73372.3,-1.17,-1.67,-1.79,0,*55
1505934101.61,23298,15.06,73368.5,-1.19,-1.87,-1.91,0,*5C
1505934102.85,23299,15.06,73364.8,-1.19,-2.39,-2.51,0,*54
1505934104.12,23300,15.06,73356.0,-1.19,-2.67,-2.67,0,*5B
1505934105.36,23301,15.06,73366.8,-1.19,-2.15,-2.07,0,*59
1505934106.62,23302,15.06,73372.8,-1.21,-1.99,-1.99,0,*52
1505934107.88,23303,15.06,73370.8,-1.19,-1.91,-1.91,0,*58
1505934109.1,23304,15.06,73366.0,-1.21,-1.79,-1.83,0,*51
1505934110.31,23305,15.06,73364.0,-1.19,-2.15,-2.27,0,*5F
1505934111.59,23306,15.06,73364.8,-1.19,-2.63,-2.63,0,*5D
1505934112.83,23307,15.06,73368.8,-1.21,-2.55,-2.59,0,*5B
1505934114.03,23308,15.06,73370.8,-1.21,-2.31,-2.31,0,*58
1505934115.3,23309,15.06,73374.5,-1.23,-2.59,-2.51,0,*53
1505934116.55,23310,15.06,73364.8,-1.25,-2.51,-2.51,0,*55
1505934117.77,23311,15.06,73362.5,-1.23,-2.27,-2.35,0,*51
1505934119.01,23312,15.06,73372.3,-1.25,-2.03,-2.03,0,*57
1505934120.23,23313,15.06,73372.5,-1.23,-2.15,-2.15,0,*50
1505934121.51,23314,15.06,73370.3,-1.23,-1.99,-1.99,0,*57
1505934122.75,23315,15.06,73370.3,-1.25,-2.11,-2.11,0,*50
1505934124.0,23316,15.06,73374.0,-1.23,-2.03,-2.15,0,*52
1505934125.25,23317,15.06,73362.8,-1.25,-2.75,-2.75,0,*52
1505934126.49,23318,15.06,73360.5,-1.25,-2.75,-2.75,0,*5D
1505934127.68,23319,15.06,73362.0,-1.25,-2.27,-2.35,0,*5F
1505934128.92,23320,15.06,73360.5,-1.25,-1.99,-2.03,0,*56
1505934130.18,23321,15.06,73370.8,-1.25,-1.99,-1.99,0,*57
1505934131.43,23322,15.06,73370.5,-1.25,-1.99,-1.99,0,*54
1505934132.68,23323,15.06,73372.8,-1.25,-1.99,-1.99,0,*55
1505934133.92,23324,15.06,73372.8,-1.25,-2.03,-2.03,0,*52
1505934135.17,23325,15.06,73366.8,-1.25,-1.99,-2.03,0,*53
1505934136.42,23326,15.06,73366.5,-1.25,-1.99,-1.99,0,*50
1505934137.66,23327,15.06,73362.0,-1.25,-2.11,-2.11,0,*51
1505934138.91,23328,15.06,73364.5,-1.25,-2.03,-2.03,0,*5E
1505934140.16,23329,15.06,73368.0,-1.25,-1.99,-1.99,0,*5F
1505934141.41,23330,15.06,73370.0,-1.25,-1.99,-1.99,0,*57
1505934142.66,23331,15.06,73364.5,-1.25,-1.99,-1.99,0,*56
1505934143.89,23332,15.06,73370.0,-1.25,-1.87,-1.95,0,*56
1505934145.16,23333,15.06,73370.3,-1.23,-1.87,-1.95,0,*51
1505934146.41,23334,15.06,73374.0,-1.25,-1.99,-1.99,0,*53
1505934147.64,23335,15.06,73364.3,-1.25,-1.95,-1.95,0,*52
1505934148.92,23336,15.06,73366.3,-1.23,-1.83,-1.99,0,*5C
1505934150.19,23337,15.06,73366.3,-1.23,-1.95,-1.99,0,*5A
1505934151.46,23338,15.06,73366.5,-1.23,-1.95,-1.99,0,*55
1505934152.73,23339,15.06,73362.8,-1.23,-1.95,-1.95,0,*58
1505934153.92,23340,15.06,73370.8,-1.25,-1.71,-1.75,0,*54
1505934155.13,23341,15.06,73370.0,-1.23,-1.59,-1.59,0,*57
1505934156.35,23342,15.06,73368.8,-1.23,-2.15,-2.15,0,*54
1505934157.57,23343,15.06,73366.3,-1.23,-2.27,-2.27,0,*55
1505934158.81,23344,15.06,73372.3,-1.25,-2.11,-2.11,0,*54
1505934160.08,23345,15.06,73368.8,-1.23,-1.99,-1.95,0,*5F
1505934161.32,23346,15.06,73368.3,-1.25,-1.95,-1.95,0,*56
1505934162.56,23347,15.06,73370.3,-1.25,-1.95,-1.99,0,*5B
1505934163.82,23348,15.06,73370.8,-1.23,-1.87,-1.95,0,*5D
1505934165.1,23349,15.06,73370.8,-1.23,-1.87,-1.83,0,*5B
1505934166.34,23350,15.06,73368.5,-1.25,-1.87,-1.87,0,*51
1505934167.62,23351,15.06,73368.3,-1.23,-1.99,-1.99,0,*56
1505934168.89,23352,15.06,73368.5,-1.23,-1.87,-1.95,0,*56
1505934170.1,23353,15.06,73370.8,-1.23,-1.59,-1.59,0,*54
1505934171.35,23354,15.06,73372.3,-1.23,-1.83,-1.71,0,*5E
1505934172.56,23355,15.06,73370.8,-1.23,-1.59,-1.63,0,*5B
1505934173.75,23356,15.06,73368.3,-1.21,-1.55,-1.55,0,*53
1505934174.95,23357,15.06,73366.3,-1.21,-1.79,-1.79,0,*52
1505934176.19,23358,15.06,73370.5,-1.21,-1.83,-1.91,0,*5E
1505934177.43,23359,15.06,73368.3,-1.21,-1.83,-1.95,0,*5B
1505934178.67,23360,15.06,73366.5,-1.21,-1.95,-1.91,0,*52
1505934179.92,23361,15.06,73376.0,-1.21,-1.91,-1.91,0,*57
1505934181.16,23362,15.06,73368.5,-1.21,-1.83,-1.83,0,*54
1505934182.4,23363,15.06,73368.3,-1.21,-1.95,-1.95,0,*55
1505934183.59,23364,15.06,73370.8,-1.21,-1.55,-1.67,0,*53
1505934184.84,23365,15.06,73366.5,-1.21,-1.91,-1.83,0,*50
1505934186.1,23366,15.06,73370.8,-1.19,-1.91,-1.87,0,*5C
1505934187.32,23367,15.06,73372.0,-1.21,-1.83,-1.79,0,*54
1505934188.52,23368,15.06,73372.8,-1.21,-1.79,-1.79,0,*5E
1505934189.75,23369,15.06,73372.3,-1.21,-1.91,-1.95,0,*5B
1505934190.97,23370,15.06,73370.3,-1.19,-1.79,-1.75,0,*50
1505934192.23,23371,15.06,73370.0,-1.19,-1.95,-1.91,0,*59
1505934193.5,23372,15.06,73370.0,-1.19,-1.87,-1.91,0,*59
1505934194.74,23373,15.06,73368.8,-1.21,-1.91,-1.95,0,*50
1505934195.93,23374,15.06,73370.5,-1.21,-1.79,-1.79,0,*53
1505934197.2,23375,15.06,73374.5,-1.19,-1.87,-1.87,0,*59
1505934198.44,23376,15.06,73370.0,-1.21,-1.91,-1.91,0,*51
1505934199.68,23377,15.06,73368.3,-1.21,-1.91,-1.95,0,*54
1505934200.94,23378,15.06,73372.3,-1.19,-1.91,-1.91,0,*54
1505934202.21,23379,15.06,73372.0,-1.19,-1.87,-1.91,0,*52
1505934203.45,23380,15.06,73372.8,-1.21,-1.91,-1.91,0,*58
1505934204.67,23381,15.06,73376.0,-1.19,-1.79,-1.75,0,*5E
1505934205.87,23382,15.06,73374.0,-1.21,-1.71,-1.71,0,*5A
1505934207.07,23383,15.06,73374.3,-1.21,-1.71,-1.79,0,*53
1505934208.29,23384,15.06,73368.8,-1.19,-1.75,-1.79,0,*5B
1505934209.51,23385,15.06,73368.0,-1.19,-1.67,-1.67,0,*56
1505934210.75,23386,15.06,73374.8,-1.21,-1.83,-1.83,0,*5E
1505934211.99,23387,15.06,73372.0,-1.21,-1.95,-1.95,0,*5F
1505934213.19,23388,15.06,73380.8,-1.21,-0.19,0.13,0,*77
1505934214.41,23389,15.06,73376.3,-1.19,-1.63,-1.63,0,*5A
1505934215.59,23390,15.06,73378.3,-1.21,-1.59,-1.59,0,*59
1505934216.81,23391,15.06,73378.5,-1.19,-1.63,-1.63,0,*53
1505934218.03,23392,15.06,73374.0,-1.19,-1.67,-1.67,0,*50
1505934219.27,23393,15.06,73370.3,-1.19,-1.79,-1.87,0,*50
1505934220.48,23394,15.06,73382.3,-1.19,-1.75,-1.75,0,*56
1505934221.7,23395,15.06,73372.5,-1.19,-1.67,-1.75,0,*54
1505934222.97,23396,15.06,73368.0,-1.19,-1.95,-2.03,0,*58
1505934224.22,23397,15.06,73368.3,-1.19,-1.91,-1.95,0,*51
1505934225.5,23398,15.06,73378.3,-1.19,-1.39,-1.43,0,*57
1505934226.71,23399,15.06,73374.8,-1.19,-1.75,-1.75,0,*5B
1505934227.98,23400,15.06,73374.0,-1.19,-1.91,-1.91,0,*5C
1505934229.2,23401,15.06,73372.8,-1.19,-1.63,-1.67,0,*59
1505934230.44,23402,15.06,73370.8,-1.21,-1.91,-1.91,0,*55
1505934231.66,23403,15.06,73372.8,-1.19,-1.63,-1.67,0,*5B
1505934232.88,23404,15.06,73370.8,-1.19,-1.75,-1.67,0,*5B
1505934234.1,23405,15.06,73372.3,-1.19,-1.75,-1.67,0,*5A
1505934235.31,23406,15.06,73372.3,-1.19,-1.51,-1.51,0,*5A
1505934236.53,23407,15.06,73374.3,-1.17,-1.87,-1.79,0,*54
1505934237.76,23408,15.06,73370.8,-1.17,-1.91,-1.95,0,*5E
1505934239.02,23409,15.06,73370.0,-1.19,-1.91,-1.95,0,*51
1505934240.24,23410,15.06,73372.3,-1.19,-1.75,-1.79,0,*51
1505934241.48,23411,15.06,73370.3,-1.19,-1.79,-1.87,0,*5D
1505934242.74,23412,15.06,73370.0,-1.19,-1.91,-1.91,0,*5F
1505934243.99,23413,15.06,73370.5,-1.19,-1.43,-1.51,0,*5D
1505934245.18,23414,15.06,73366.0,-1.17,-1.21,-1.29,0,*5F
1505934246.37,23415,15.06,73368.3,-1.17,-1.75,-1.75,0,*56
1505934247.63,23416,15.06,73374.0,-1.19,-1.91,-1.91,0,*5B
1505934248.85,23417,15.06,73372.3,-1.19,-1.55,-1.55,0,*5A
1505934250.06,23418,15.06,73364.3,-1.15,-1.71,-1.71,0,*59
1505934251.27,23419,15.06,73366.5,-1.17,-1.79,-1.87,0,*5B
1505934252.46,23420,15.06,73364.3,-1.17,-1.33,-1.33,0,*50
1505934253.65,23421,15.06,73366.5,-1.17,-1.55,-1.63,0,*54
1505934254.84,23422,15.06,73368.8,-1.17,-1.63,-1.67,0,*56
1505934256.08,23423,15.06,73366.5,-1.17,-1.87,-1.91,0,*54
1505934257.3,23424,15.06,73364.3,-1.17,-1.79,-1.87,0,*55
1505934258.55,23425,15.06,73366.3,-1.17,-2.07,-2.07,0,*55
1505934259.74,23426,15.06,73368.8,-1.17,-2.31,-2.39,0,*5E
1505934260.98,23427,15.06,73364.8,-1.19,-1.39,-1.51,0,*57
1505934262.22,23428,15.06,73364.8,-1.17,-1.91,-1.91,0,*58
1505934263.46,23429,15.06,73362.5,-1.21,-1.95,-1.95,0,*5C
1505934264.67,23430,15.06,73370.3,-1.19,-1.55,-1.55,0,*5F
1505934265.92,23431,15.06,73364.5,-1.19,-1.87,-1.79,0,*5F
1505934267.16,23432,15.06,73364.3,-1.17,-1.87,-1.91,0,*54
1505934268.38,23433,15.06,73362.3,-1.17,-2.07,-2.15,0,*51
1505934269.6,23434,15.06,73370.0,-1.17,-1.17,-1.05,0,*56
1505934270.82,23435,15.06,73362.0,-1.19,-1.79,-1.79,0,*5A
1505934272.01,23436,15.06,73364.8,-1.17,-1.79,-1.79,0,*57
1505934273.24,23437,15.06,73364.5,-1.17,-1.91,-1.91,0,*56
1505934274.49,23438,15.06,73368.0,-1.19,-1.87,-1.79,0,*56
1505934275.71,23439,15.06,73366.3,-1.19,-1.79,-1.63,0,*5D
1505934276.92,23440,15.06,73360.0,-1.19,-1.79,-1.79,0,*58
1505934278.18,23441,15.06,73364.0,-1.19,-1.91,-1.95,0,*5D
1505934279.4,23442,15.06,73362.8,-1.19,-2.19,-2.19,0,*5A
1505934280.66,23443,15.06,73362.0,-1.19,-1.91,-1.95,0,*5F
1505934281.92,23444,15.06,73370.8,-1.19,-1.91,-1.91,0,*5C
1505934283.19,23445,15.06,73364.0,-1.19,-1.91,-1.91,0,*5D
1505934284.38,23446,15.06,73370.3,-1.21,-2.23,-2.23,0,*55
1505934285.59,23447,15.06,73366.5,-1.19,-2.19,-2.27,0,*52
1505934286.78,23448,15.06,73368.8,-1.21,-2.19,-2.19,0,*5B
1505934287.98,23449,15.06,73368.8,-1.21,-2.43,-2.31,0,*5F
1505934289.17,23450,15.06,73374.5,-1.21,-2.23,-2.23,0,*52
1505934290.39,23451,15.06,73376.8,-1.21,-2.35,-2.47,0,*56
1505934291.58,23452,15.06,73372.8,-1.21,-2.83,-2.79,0,*55
1505934292.77,23453,15.06,73368.5,-1.21,-3.19,-3.11,0,*59
1505934293.96,23454,15.06,73364.5,-1.25,-3.11,-3.03,0,*51
1505934295.2,23455,15.06,73366.3,-1.25,-2.59,-2.59,0,*53
1505934296.39,23456,15.06,73364.3,-1.25,-2.23,-2.15,0,*55
1505934297.57,23457,15.06,73366.3,-1.25,-2.27,-2.27,0,*51
1505934298.76,23458,15.06,73360.3,-1.25,-2.15,-2.15,0,*5E
1505934300.01,23459,15.06,73360.5,-1.25,-2.03,-1.99,0,*5F
1505934301.25,23460,15.06,73364.3,-1.25,-2.11,-2.11,0,*55
1505934302.51,23461,15.06,73364.8,-1.25,-1.99,-1.99,0,*54
1505934303.76,23462,15.06,73366.8,-1.25,-1.99,-1.99,0,*57
1505934304.97,23463,15.06,73360.3,-1.25,-1.35,-1.51,0,*54
1505934306.25,23464,15.06,73364.3,-1.23,-1.99,-1.99,0,*57
1505934307.52,23465,15.06,73362.0,-1.23,-1.95,-2.03,0,*5A
1505934308.77,23466,15.06,73362.3,-1.25,-1.99,-2.03,0,*53
1505934310.01,23467,15.06,73358.3,-1.25,-1.99,-2.03,0,*52
1505934311.29,23468,15.06,73352.8,-1.23,-2.03,-2.03,0,*5B
1505934312.57,23469,15.06,73364.8,-1.23,-1.99,-1.99,0,*5A
1505934313.85,23470,15.06,73370.8,-1.23,-1.99,-1.99,0,*52
1505934315.12,23471,15.06,73378.3,-1.23,-1.95,-1.99,0,*5F
1505934316.33,23472,15.06,73370.8,-1.25,-1.13,-1.25,0,*53
1505934317.55,23473,15.06,73372.5,-1.25,-1.83,-1.75,0,*5E
1505934318.83,23474,15.06,73372.0,-1.23,-1.99,-1.99,0,*56
1505934320.05,23475,15.06,73372.3,-1.25,-2.11,-2.15,0,*55
1505934321.32,23476,15.06,73374.5,-1.23,-2.03,-2.11,0,*57
1505934322.59,23477,15.06,73368.3,-1.23,-1.99,-1.95,0,*59
1505934323.86,23478,15.06,73364.0,-1.23,-1.95,-1.95,0,*5A
1505934325.13,23479,15.06,73358.0,-1.23,-2.03,-2.03,0,*5B
1505934326.41,23480,15.06,73356.5,-1.23,-1.99,-1.99,0,*5D
1505934327.68,23481,15.06,73352.8,-1.23,-1.95,-1.87,0,*5F
1505934328.93,23482,15.06,73372.5,-1.25,-1.99,-2.03,0,*59
1505934330.2,23483,15.06,73376.0,-1.23,-2.03,-2.03,0,*5E
1505934331.45,23484,15.06,73374.0,-1.25,-1.99,-1.99,0,*5F
1505934332.7,23485,15.06,73366.8,-1.25,-1.99,-1.99,0,*5E
1505934333.97,23486,15.06,73378.8,-1.23,-1.99,-1.95,0,*57
1505934335.25,23487,15.06,73374.5,-1.23,-2.11,-2.03,0,*59
1505934336.52,23488,15.06,73364.5,-1.23,-2.11,-2.11,0,*55
1505934337.77,23489,15.06,73358.3,-1.25,-2.03,-2.03,0,*52
1505934339.04,23490,15.06,73352.3,-1.23,-1.87,-1.87,0,*5C
1505934340.27,23491,15.06,73352.5,-1.25,-1.95,-1.95,0,*5B
1505934341.51,23492,15.06,73372.0,-1.23,-2.15,-2.11,0,*5A
1505934342.76,23493,15.06,73386.0,-1.25,-2.11,-2.11,0,*59
1505934344.0,23494,15.06,73386.8,-1.25,-1.95,-1.87,0,*5D
1505934345.27,23495,15.06,73392.5,-1.23,-1.87,-1.95,0,*5A
1505934346.54,23496,15.06,73374.5,-1.23,-2.11,-2.11,0,*5A
1505934347.82,23497,15.06,73360.0,-1.23,-2.47,-2.51,0,*5C
1505934349.09,23498,15.06,73358.0,-1.23,-2.51,-2.63,0,*55
1505934350.29,23499,15.06,73344.8,-1.25,-2.15,-2.23,0,*56
1505934351.47,23500,15.06,73336.8,-1.25,-2.27,-2.35,0,*51
1505934352.66,23501,15.06,73342.0,-1.25,-2.23,-2.27,0,*57
1505934353.85,23502,15.06,73342.5,-1.25,-2.23,-2.35,0,*57
1505934355.03,23503,15.06,73354.5,-1.25,-2.27,-2.27,0,*51
1505934356.22,23504,15.06,73350.8,-1.25,-2.15,-2.15,0,*56
1505934357.47,23505,15.06,73350.3,-1.25,-2.03,-2.03,0,*57
1505934358.74,23506,15.06,73348.0,-1.27,-2.07,-2.07,0,*56
1505934359.99,23507,15.06,73344.8,-1.27,-2.15,-2.07,0,*54
1505934361.24,23508,15.06,73350.3,-1.27,-2.07,-2.15,0,*5B
1505934362.52,23509,15.06,73352.8,-1.27,-2.07,-2.07,0,*59
1505934363.79,23510,15.06,73360.8,-1.27,-2.07,-2.07,0,*51
1505934365.07,23511,15.06,73362.8,-1.27,-2.07,-1.99,0,*54
1505934366.34,23512,15.06,73348.5,-1.27,-2.07,-2.03,0,*57
1505934367.59,23513,15.06,73344.0,-1.27,-2.03,-2.15,0,*55
1505934368.86,23514,15.06,73366.3,-1.27,-2.07,-2.07,0,*55
1505934370.08,23515,15.06,73364.3,-1.27,-1.75,-1.75,0,*54
1505934371.3,23516,15.06,73366.0,-1.27,-1.79,-1.75,0,*5B
1505934372.52,23517,15.06,73370.5,-1.27,-1.55,-1.55,0,*56
1505934373.74,23518,15.06,73368.0,-1.23,-1.25,-1.21,0,*59
1505934374.93,23519,15.06,73362.0,-1.25,-1.59,-1.51,0,*52
1505934376.2,23520,15.06,73352.8,-1.23,-1.83,-1.95,0,*51
1505934377.47,23521,15.06,73358.5,-1.23,-1.47,-1.39,0,*5E
1505934378.69,23522,15.06,73358.0,-1.21,-1.55,-1.47,0,*55
1505934379.92,23523,15.06,73360.5,-1.19,-0.89,-0.77,0,*5D
1505934381.14,23524,15.06,73360.5,-1.19,-1.29,-1.33,0,*50
1505934382.41,23525,15.06,73364.3,-1.19,-1.91,-1.91,0,*5A
1505934383.68,23526,15.06,73370.0,-1.19,-2.03,-2.07,0,*5D
1505934384.89,23527,15.06,73366.5,-1.19,-2.27,-2.39,0,*57
1505934386.14,23528,15.06,73370.0,-1.21,-2.55,-2.59,0,*50
1505934387.38,23529,15.06,73370.0,-1.21,-2.59,-2.67,0,*50
1505934388.65,23530,15.06,73370.0,-1.23,-2.47,-2.59,0,*58
1505934389.87,23531,15.06,73368.8,-1.23,-2.39,-2.39,0,*56
1505934391.14,23532,15.06,73374.0,-1.23,-2.59,-2.59,0,*55
1505934392.38,23533,15.06,73372.3,-1.25,-2.71,-2.75,0,*56
1505934393.6,23534,15.06,73368.8,-1.25,-2.47,-2.39,0,*5C
1505934394.79,23535,15.06,73374.8,-1.25,-2.35,-2.39,0,*58
1505934395.97,23536,15.06,73372.8,-1.25,-2.15,-2.27,0,*56
1505934397.19,23537,15.06,73370.8,-1.27,-2.19,-2.15,0,*58
1505934398.41,23538,15.06,73372.8,-1.27,-2.19,-2.27,0,*56
1505934399.63,23539,15.06,73372.0,-1.27,-2.15,-2.19,0,*56
1505934400.85,23540,15.06,73372.3,-1.27,-2.31,-2.39,0,*5C
1505934402.12,23541,15.06,73372.5,-1.27,-2.55,-2.55,0,*55
1505934403.31,23542,15.06,73372.5,-1.29,-2.79,-2.87,0,*59
1505934404.5,23543,15.06,73372.8,-1.29,-3.07,-3.15,0,*5A
1505934405.69,23544,15.06,73374.0,-1.29,-2.91,-3.03,0,*54
1505934406.93,23545,15.06,73376.3,-1.31,-2.71,-2.83,0,*5B
1505934408.2,23546,15.06,73374.3,-1.31,-2.55,-2.55,0,*55
1505934409.42,23547,15.06,73370.8,-1.31,-2.43,-2.43,0,*54
1505934410.64,23548,15.06,73368.5,-1.31,-2.31,-2.35,0,*5F
1505934411.85,23549,15.06,73364.5,-1.31,-2.19,-2.23,0,*53
1505934413.1,23550,15.06,73368.3,-1.35,-2.11,-2.19,0,*5E
1505934414.38,23551,15.06,73368.5,-1.31,-2.11,-2.11,0,*53
1505934415.65,23552,15.06,73370.5,-1.31,-1.91,-2.03,0,*58
1505934416.92,23553,15.06,73364.5,-1.31,-1.83,-1.83,0,*51
1505934418.18,23554,15.06,73362.5,-1.31,-1.91,-2.03,0,*5E
1505934419.46,23555,15.06,73360.5,-1.31,-2.07,-2.07,0,*57
1505934420.73,23556,15.06,73360.3,-1.31,-2.07,-2.07,0,*54
1505934422.01,23557,15.06,73364.0,-1.31,-2.07,-2.07,0,*55
1505934423.26,23558,15.06,73364.0,-1.29,-1.99,-1.99,0,*53
1505934424.51,23559,15.06,73368.3,-1.29,-1.99,-1.99,0,*52
1505934425.75,23560,15.06,73368.0,-1.31,-1.79,-1.95,0,*53
1505934426.99,23561,15.06,73366.8,-1.29,-2.03,-2.03,0,*59
1505934428.24,23562,15.06,73366.3,-1.29,-1.99,-2.03,0,*5A
1505934429.52,23563,15.06,73364.8,-1.27,-2.03,-2.03,0,*55
1505934430.77,23564,15.06,73364.0,-1.29,-2.03,-2.03,0,*5C
1505934432.01,23565,15.06,73362.3,-1.29,-2.03,-2.03,0,*5D
1505934433.28,23566,15.06,73362.3,-1.27,-2.03,-2.03,0,*50
1505934434.54,23567,15.06,73364.3,-1.29,-1.99,-1.99,0,*5F
1505934435.78,23568,15.06,73360.5,-1.27,-1.91,-1.79,0,*58
1505934437.02,23569,15.06,73364.3,-1.29,-0.89,-1.05,0,*64
1505934438.23,23570,15.06,73360.0,-1.27,-0.53,-0.65,0,*52
1505934439.48,23571,15.06,73362.3,-1.25,-1.39,-1.39,0,*54
1505934440.76,23572,15.06,73362.5,-1.23,-1.39,-1.35,0,*5D
1505934441.97,23573,15.06,73362.8,-1.23,-1.75,-1.63,0,*57
1505934443.2,23574,15.06,73364.0,-1.23,-1.75,-1.75,0,*57
1505934444.44,23575,15.06,73362.8,-1.23,-1.75,-1.83,0,*5F
1505934445.71,23576,15.06,73352.8,-1.23,-1.47,-1.47,0,*55
1505934446.93,23577,15.06,73356.0,-1.25,-1.13,-1.21,0,*53
1505934448.2,23578,15.06,73356.5,-1.23,-1.83,-1.87,0,*5F
1505934449.45,23579,15.06,73364.0,-1.21,-1.91,-1.91,0,*58
1505934450.69,23580,15.06,73358.3,-1.21,-1.91,-1.91,0,*5E
1505934451.88,23581,15.06,73356.0,-1.21,-1.67,-1.59,0,*52
1505934453.07,23582,15.06,73350.8,-1.21,-1.67,-1.55,0,*5D
1505934454.27,23583,15.06,73340.0,-1.19,-0.07,-0.03,0,*52
1505934455.51,23584,15.06,73344.5,-1.19,-1.39,-1.51,0,*5F
1505934456.75,23585,15.06,73352.5,-1.17,-1.91,-1.87,0,*59
1505934458.02,23586,15.06,73350.3,-1.19,-1.87,-1.87,0,*53
1505934459.26,23587,15.06,73362.0,-1.21,-1.91,-1.91,0,*59
1505934460.48,23588,15.06,73356.0,-1.19,-1.79,-1.79,0,*5D
1505934461.75,23589,15.06,73358.3,-1.19,-1.91,-1.91,0,*5C
1505934463.01,23590,15.06,73348.8,-1.19,-1.91,-2.03,0,*5C
1505934464.27,23591,15.06,73356.5,-1.21,-1.99,-1.99,0,*5E
1505934465.5,23592,15.06,73358.8,-1.21,-1.95,-1.95,0,*5D
1505934466.75,23593,15.06,73360.8,-1.21,-2.11,-2.11,0,*5C
1505934468.0,23594,15.06,73360.3,-1.21,-1.99,-1.99,0,*5B
1505934469.26,23595,15.06,73356.3,-1.19,-1.95,-1.95,0,*51
1505934470.46,23596,15.06,73354.3,-1.21,-2.19,-2.23,0,*50
1505934471.66,23597,15.06,73350.3,-1.21,-2.31,-2.31,0,*58
1505934472.87,23598,15.06,73348.0,-1.23,-2.27,-2.27,0,*55
1505934474.09,23599,15.06,73348.0,-1.23,-2.15,-2.23,0,*51
1505934475.37,23600,15.06,73348.8,-1.23,-1.99,-2.03,0,*57
1505934476.61,23601,15.06,73348.5,-1.25,-2.11,-2.11,0,*50
1505934477.89,23602,15.06,73344.8,-1.23,-2.11,-2.03,0,*56
1505934479.14,23603,15.06,73340.3,-1.25,-2.11,-2.03,0,*51
1505934480.41,23604,15.06,73350.8,-1.23,-1.83,-1.87,0,*57
1505934481.68,23605,15.06,73342.0,-1.23,-1.83,-1.83,0,*52
1505934482.9,23606,15.06,73350.5,-1.23,-2.15,-2.15,0,*51
1505934484.11,23607,15.06,73350.8,-1.25,-1.51,-1.39,0,*58
1505934485.36,23608,15.06,73352.5,-1.23,-1.21,-1.01,0,*5D
1505934486.58,23609,15.06,73366.8,-1.23,-1.75,-1.75,0,*5E
1505934487.86,23610,15.06,73356.8,-1.23,-1.99,-1.99,0,*56
1505934489.13,23611,15.06,73356.0,-1.23,-2.03,-2.11,0,*54
1505934490.33,23612,15.06,73352.3,-1.21,-1.67,-1.67,0,*56
1505934491.57,23613,15.06,73356.0,-1.21,-1.83,-1.83,0,*57
1505934492.85,23614,15.06,73360.3,-1.23,-1.87,-1.87,0,*52
1505934494.09,23615,15.06,73356.3,-1.21,-1.83,-1.83,0,*51
1505934495.33,23616,15.06,73360.5,-1.21,-1.91,-1.95,0,*56
1505934496.6,23617,15.06,73358.0,-1.23,-1.99,-1.95,0,*5D
1505934497.87,23618,15.06,73356.8,-1.23,-2.03,-2.03,0,*5E
1505934499.15,23619,15.06,73366.8,-1.23,-2.03,-2.03,0,*5F
1505934500.43,23620,15.06,73366.3,-1.23,-1.99,-1.99,0,*55
1505934501.7,23621,15.06,73356.8,-1.23,-2.11,-2.03,0,*57
1505934502.97,23622,15.06,73360.3,-1.23,-1.95,-1.87,0,*54
1505934504.23,23623,15.06,73366.5,-1.23,-1.95,-1.95,0,*56
1505934505.5,23624,15.06,73372.5,-1.23,-1.99,-1.95,0,*5D
1505934506.78,23625,15.06,73374.5,-1.23,-2.03,-1.99,0,*50
1505934508.05,23626,15.06,73372.3,-1.23,-1.99,-1.95,0,*5F
1505934509.31,23627,15.06,73362.0,-1.23,-1.95,-1.95,0,*52
1505934510.57,23628,15.06,73362.8,-1.23,-1.95,-1.95,0,*5D
1505934511.85,23629,15.06,73366.8,-1.23,-1.99,-1.99,0,*5C